User: anonymous   Login
Location: Unspecified
(0.0000°N, 0.0000°E)
Time: 05:32:11
(UTC+00:00)
Language:

Gonets-D1 - Orbit

View from above orbital plane
View from above orbital plane
View from above satellite
View from above satellite

Ground track
Ground track

The orbit data is extracted from the following two-line orbital elements,

1 24725U 97006A   17177.88443706 -.00000001 +00000-0 -66776-4 0  9994
2 24725 082.6072 196.5242 0008765 343.5417 016.5387 12.60666354936882
Epoch (UTC): 26 June 2017 21:13:35
Eccentricity: 0.0008765
inclination: 82.6072°
perigee height: 1413 km
apogee height: 1427 km
right ascension of ascending node: 196.5242°
argument of perigee: 343.5417°
revolutions per day: 12.60666354
mean anomaly at epoch: 16.5387°
orbit number at epoch: 93688

The dashed part of the orbit path shows where the satellite is in the earth's shadow,  

DLR